Radiation Dose at Monitoring Post of Fukushima Daini Nuclear Power Station
Date,Time,MP-1(microSv/h),MP-2(microSv/h),MP-3(microSv/h),MP-4(microSv/h),MP-5(microSv/h),MP-6(microSv/h),MP-7(microSv/h),Wind Direction,Wind Velocity(m/s),Rain
2022/03/05,00:00,0.160,0.147,0.233,0.225,0.225,0.128,0.081,southwest,1.1,No
2022/03/05,00:10,0.161,0.147,0.232,0.224,0.225,0.127,0.081,south-southwest,1.3,No
2022/03/05,00:20,0.160,0.147,0.233,0.224,0.225,0.126,0.081,south,1.0,No
2022/03/05,00:30,0.160,0.146,0.233,0.223,0.225,0.128,0.081,south,1.4,No
2022/03/05,00:40,0.161,0.146,0.234,0.225,0.225,0.128,0.081,south,1.3,No
2022/03/05,00:50,0.161,0.147,0.233,0.225,0.224,0.127,0.081,south,1.6,No
2022/03/05,01:00,0.161,0.147,0.233,0.225,0.225,0.127,0.080,south,1.0,No
2022/03/05,01:10,0.161,0.148,0.232,0.225,0.226,0.127,0.081,south,0.8,No
2022/03/05,01:20,0.160,0.146,0.233,0.224,0.226,0.127,0.081,south-southeast,1.3,No
2022/03/05,01:30,0.160,0.147,0.233,0.226,0.225,0.127,0.081,south-southeast,1.1,No
2022/03/05,01:40,0.160,0.147,0.234,0.225,0.225,0.127,0.081,south-southeast,1.0,No
2022/03/05,01:50,0.161,0.147,0.233,0.224,0.224,0.126,0.082,south,1.3,No
2022/03/05,02:00,0.159,0.148,0.233,0.224,0.225,0.128,0.081,south-southeast,1.3,No
2022/03/05,02:10,0.159,0.147,0.232,0.224,0.225,0.127,0.080,south-southeast,1.3,No
2022/03/05,02:20,0.161,0.147,0.233,0.224,0.226,0.128,0.081,south,1.0,No
2022/03/05,02:30,0.161,0.147,0.233,0.225,0.224,0.127,0.081,south,1.6,No
2022/03/05,02:40,0.161,0.147,0.233,0.225,0.226,0.127,0.081,south,1.6,No
2022/03/05,02:50,0.160,0.147,0.233,0.225,0.225,0.128,0.081,south,2.2,No
2022/03/05,03:00,0.161,0.147,0.233,0.224,0.226,0.127,0.081,south,1.9,No
2022/03/05,03:10,0.162,0.146,0.232,0.224,0.224,0.127,0.080,south,2.2,No
2022/03/05,03:20,0.161,0.148,0.232,0.226,0.226,0.127,0.081,south,1.8,No
2022/03/05,03:30,0.160,0.147,0.232,0.225,0.225,0.127,0.081,south-southeast,2.4,Yes
2022/03/05,03:40,0.161,0.146,0.232,0.225,0.225,0.127,0.081,south-southeast,2.4,Yes
2022/03/05,03:50,0.161,0.147,0.233,0.224,0.225,0.128,0.082,south-southeast,1.8,Yes
2022/03/05,04:00,0.160,0.147,0.232,0.224,0.226,0.128,0.081,south,1.9,Yes
2022/03/05,04:10,0.161,0.147,0.233,0.225,0.225,0.127,0.081,south-southeast,1.9,Yes
2022/03/05,04:20,0.161,0.148,0.232,0.225,0.224,0.126,0.081,south-southeast,1.8,Yes
2022/03/05,04:30,0.161,0.149,0.233,0.224,0.226,0.128,0.081,south-southeast,1.3,Yes
2022/03/05,04:40,0.161,0.147,0.232,0.225,0.225,0.127,0.081,south-southeast,1.0,No
2022/03/05,04:50,0.161,0.148,0.233,0.225,0.226,0.127,0.081,south-southeast,1.1,No
2022/03/05,05:00,0.161,0.146,0.232,0.224,0.224,0.127,0.081,south-southeast,1.1,No
2022/03/05,05:10,0.161,0.149,0.233,0.225,0.226,0.127,0.082,south-southeast,1.6,No
2022/03/05,05:20,0.161,0.148,0.232,0.224,0.225,0.128,0.082,south,1.0,No
2022/03/05,05:30,0.160,0.147,0.234,0.224,0.225,0.128,0.081,south,0.8,No
2022/03/05,05:40,0.162,0.148,0.233,0.225,0.226,0.127,0.081,south,1.0,No
2022/03/05,05:50,0.160,0.148,0.233,0.225,0.225,0.127,0.082,south,0.8,No
2022/03/05,06:00,0.161,0.148,0.233,0.225,0.224,0.128,0.081,south,1.3,No
2022/03/05,06:10,0.160,0.147,0.234,0.226,0.225,0.128,0.081,south,1.9,No
2022/03/05,06:20,0.161,0.148,0.233,0.225,0.226,0.128,0.081,south,1.6,Yes
2022/03/05,06:30,0.160,0.146,0.233,0.224,0.225,0.127,0.081,south,1.9,Yes
2022/03/05,06:40,0.161,0.147,0.233,0.225,0.226,0.127,0.081,south-southwest,1.6,Yes
2022/03/05,06:50,0.162,0.147,0.232,0.225,0.226,0.127,0.081,southwest,2.2,No
2022/03/05,07:00,0.161,0.148,0.232,0.225,0.225,0.127,0.080,south-southwest,2.4,Yes
2022/03/05,07:10,0.161,0.146,0.234,0.224,0.225,0.127,0.082,south-southwest,2.2,No
2022/03/05,07:20,0.161,0.147,0.234,0.224,0.224,0.128,0.082,southwest,2.2,No
2022/03/05,07:30,0.161,0.148,0.234,0.225,0.224,0.128,0.081,south-southwest,1.8,No
2022/03/05,07:40,0.161,0.148,0.232,0.225,0.225,0.128,0.081,south,2.2,No
2022/03/05,07:50,0.161,0.148,0.232,0.224,0.225,0.127,0.081,south-southwest,2.7,No
2022/03/05,08:00,0.161,0.147,0.234,0.225,0.226,0.127,0.081,south-southeast,1.9,No
2022/03/05,08:10,0.160,0.147,0.233,0.225,0.225,0.127,0.081,south-southeast,1.9,No
2022/03/05,08:20,0.162,0.147,0.232,0.224,0.225,0.127,0.081,south-southeast,2.1,No
2022/03/05,08:30,0.161,0.147,0.232,0.225,0.225,0.127,0.081,south,2.4,No
2022/03/05,08:40,0.161,0.146,0.233,0.224,0.225,0.127,0.081,south-southeast,2.7,No
2022/03/05,08:50,0.161,0.148,0.232,0.225,0.225,0.128,0.080,south-southeast,3.2,No
2022/03/05,09:00,0.161,0.148,0.231,0.224,0.226,0.127,0.080,southeast,3.8,No
2022/03/05,09:10,0.161,0.147,0.233,0.223,0.226,0.127,0.081,south-southeast,3.3,No
2022/03/05,09:20,0.161,0.146,0.232,0.223,0.225,0.127,0.081,south-southeast,4.1,No
2022/03/05,09:30,0.159,0.146,0.231,0.223,0.225,0.126,0.080,south-southeast,5.2,No
2022/03/05,09:40,0.160,0.146,0.233,0.224,0.225,0.126,0.081,south-southeast,5.2,No
2022/03/05,09:50,0.160,0.146,0.232,0.224,0.225,0.126,0.081,-,CALM,No
2022/03/05,10:00,0.159,0.147,0.233,0.224,0.224,0.126,0.080,-,CALM,No
2022/03/05,10:10,0.160,0.146,0.233,0.225,0.225,0.126,0.080,-,CALM,No
2022/03/05,10:20,0.161,0.146,0.231,0.223,0.224,0.127,0.080,-,CALM,No
2022/03/05,10:30,0.159,0.147,0.231,0.226,0.226,0.127,0.081,-,CALM,No
2022/03/05,10:40,0.161,0.146,0.232,0.224,0.225,0.126,0.081,-,CALM,No
2022/03/05,10:50,0.159,0.146,0.232,0.225,0.225,0.127,0.081,-,CALM,No
2022/03/05,11:00,0.160,0.146,0.231,0.224,0.226,0.126,0.081,-,CALM,No
2022/03/05,11:10,0.158,0.147,0.232,0.223,0.225,0.127,0.081,-,CALM,No
2022/03/05,11:20,0.160,0.147,0.231,0.224,0.226,0.126,0.081,-,CALM,No
2022/03/05,11:30,0.159,0.147,0.231,0.222,0.225,0.127,0.080,-,CALM,No
2022/03/05,11:40,0.160,0.147,0.232,0.225,0.226,0.127,0.080,-,CALM,No
2022/03/05,11:50,0.159,0.146,0.231,0.224,0.224,0.126,0.081,-,CALM,No
2022/03/05,12:00,0.160,0.146,0.232,0.225,0.226,0.127,0.081,-,CALM,No
2022/03/05,12:10,0.159,0.147,0.232,0.224,0.223,0.126,0.081,-,CALM,No
2022/03/05,12:20,0.159,0.146,0.232,0.223,0.226,0.127,0.081,-,CALM,No
2022/03/05,12:30,0.160,0.148,0.233,0.224,0.225,0.127,0.080,-,CALM,No
2022/03/05,12:40,0.159,0.147,0.231,0.223,0.225,0.126,0.080,-,CALM,No
2022/03/05,12:50,0.160,0.146,0.233,0.224,0.226,0.127,0.080,-,CALM,No
2022/03/05,13:00,0.159,0.147,0.231,0.223,0.224,0.127,0.080,-,CALM,No
2022/03/05,13:10,0.161,0.146,0.232,0.223,0.224,0.127,0.080,-,CALM,No
2022/03/05,13:20,0.160,0.147,0.231,0.225,0.225,0.126,0.081,-,CALM,No
2022/03/05,13:30,0.161,0.145,0.232,0.223,0.225,0.127,0.079,-,CALM,No
2022/03/05,13:40,0.158,0.146,0.231,0.226,0.225,0.127,0.081,-,CALM,No
2022/03/05,13:50,0.160,0.147,0.233,0.224,0.225,0.126,0.081,-,CALM,No
2022/03/05,14:00,0.160,0.147,0.230,0.225,0.225,0.126,0.080,-,CALM,No
2022/03/05,14:10,0.161,0.147,0.233,0.225,0.225,0.127,0.081,-,CALM,No
2022/03/05,14:20,0.160,0.146,0.231,0.223,0.226,0.127,0.080,-,CALM,No
2022/03/05,14:30,0.160,0.147,0.233,0.226,0.225,0.127,0.081,-,CALM,No
2022/03/05,14:40,0.161,0.146,0.232,0.225,0.226,0.128,0.080,-,CALM,No
2022/03/05,14:50,0.159,0.146,0.233,0.225,0.225,0.127,0.080,-,CALM,No
2022/03/05,15:00,0.161,0.147,0.233,0.225,0.225,0.127,0.080,-,CALM,No
2022/03/05,15:10,0.160,0.147,0.232,0.225,0.226,0.127,0.081,-,CALM,No
2022/03/05,15:20,0.160,0.147,0.233,0.225,0.225,0.127,0.081,-,CALM,No
2022/03/05,15:30,0.160,0.147,0.233,0.225,0.226,0.127,0.080,south-southeast,7.4,No
2022/03/05,15:40,0.159,0.147,0.233,0.224,0.225,0.127,0.081,south,7.5,No
2022/03/05,15:50,0.161,0.148,0.233,0.224,0.224,0.126,0.081,south,6.9,No
2022/03/05,16:00,0.160,0.147,0.233,0.226,0.226,0.127,0.080,south,6.5,No
2022/03/05,16:10,0.161,0.147,0.233,0.225,0.225,0.127,0.080,south,6.0,No
2022/03/05,16:20,0.161,0.148,0.233,0.224,0.226,0.127,0.080,south,5.8,No
2022/03/05,16:30,0.160,0.147,0.232,0.224,0.226,0.126,0.080,south,5.4,Yes
2022/03/05,16:40,0.160,0.148,0.232,0.225,0.226,0.127,0.081,south-southwest,3.8,No
2022/03/05,16:50,0.160,0.147,0.234,0.225,0.227,0.127,0.080,west,3.5,No
2022/03/05,17:00,0.161,0.147,0.232,0.225,0.225,0.127,0.081,west-northwest,7.5,No
2022/03/05,17:10,0.160,0.148,0.231,0.224,0.227,0.128,0.080,west-northwest,8.5,No
2022/03/05,17:20,0.159,0.147,0.232,0.224,0.226,0.127,0.081,west-northwest,10.6,No
2022/03/05,17:30,0.160,0.147,0.233,0.225,0.225,0.127,0.081,west-northwest,10.3,No
2022/03/05,17:40,0.160,0.147,0.232,0.224,0.226,0.127,0.081,west-northwest,11.2,No
2022/03/05,17:50,0.160,0.146,0.233,0.225,0.225,0.127,0.080,west-northwest,13.7,No
2022/03/05,18:00,0.161,0.146,0.233,0.225,0.226,0.127,0.081,west,12.4,Yes
2022/03/05,18:10,0.160,0.146,0.231,0.225,0.225,0.127,0.081,west,14.2,Yes
2022/03/05,18:20,0.159,0.148,0.233,0.225,0.224,0.128,0.081,west,14.6,No
2022/03/05,18:30,0.161,0.147,0.232,0.225,0.226,0.127,0.081,west,14.0,No
2022/03/05,18:40,0.161,0.147,0.232,0.225,0.227,0.127,0.080,west,11.9,Yes
2022/03/05,18:50,0.161,0.147,0.232,0.225,0.226,0.127,0.081,west-northwest,12.2,Yes
2022/03/05,19:00,0.161,0.148,0.234,0.225,0.226,0.128,0.080,west-northwest,13.4,No
2022/03/05,19:10,0.161,0.147,0.234,0.226,0.226,0.128,0.080,west-northwest,12.6,No
2022/03/05,19:20,0.161,0.148,0.233,0.225,0.226,0.128,0.081,west,12.5,No
2022/03/05,19:30,0.161,0.148,0.234,0.226,0.225,0.128,0.081,west-northwest,11.5,No
2022/03/05,19:40,0.162,0.149,0.233,0.226,0.227,0.128,0.081,west-northwest,11.4,No
2022/03/05,19:50,0.161,0.148,0.234,0.225,0.225,0.128,0.080,west-northwest,9.0,No
2022/03/05,20:00,0.162,0.148,0.234,0.224,0.225,0.128,0.081,west-northwest,11.5,No
2022/03/05,20:10,0.162,0.148,0.233,0.225,0.227,0.128,0.080,west,15.9,No
2022/03/05,20:20,0.160,0.148,0.234,0.225,0.226,0.128,0.081,west-northwest,12.3,No
2022/03/05,20:30,0.160,0.148,0.234,0.226,0.226,0.129,0.081,west,15.4,No
2022/03/05,20:40,0.161,0.146,0.233,0.226,0.226,0.128,0.081,west-northwest,13.2,No
2022/03/05,20:50,0.161,0.148,0.232,0.225,0.227,0.128,0.081,west-northwest,14.8,No
2022/03/05,21:00,0.161,0.147,0.234,0.226,0.226,0.128,0.081,west-northwest,15.1,No
2022/03/05,21:10,0.160,0.147,0.234,0.226,0.226,0.127,0.081,west-northwest,14.0,No
2022/03/05,21:20,0.162,0.148,0.233,0.225,0.226,0.128,0.081,west-northwest,16.2,No
2022/03/05,21:30,0.161,0.146,0.233,0.226,0.226,0.128,0.081,west,15.3,No
2022/03/05,21:40,0.160,0.147,0.233,0.225,0.226,0.128,0.081,west,16.5,No
2022/03/05,21:50,0.161,0.146,0.233,0.225,0.225,0.128,0.081,northwest,15.4,No
2022/03/05,22:00,0.160,0.147,0.233,0.225,0.227,0.126,0.081,west,21.7,No
2022/03/05,22:10,0.161,0.148,0.233,0.224,0.226,0.128,0.080,west-northwest,20.0,No
2022/03/05,22:20,0.162,0.146,0.234,0.227,0.225,0.127,0.080,west-northwest,15.1,No
2022/03/05,22:30,0.161,0.148,0.233,0.225,0.226,0.128,0.081,west,14.5,No
2022/03/05,22:40,0.160,0.147,0.233,0.225,0.228,0.127,0.080,west-northwest,14.8,No
2022/03/05,22:50,0.160,0.147,0.234,0.226,0.225,0.127,0.081,west,14.5,No
2022/03/05,23:00,0.161,0.146,0.233,0.225,0.227,0.127,0.081,west-northwest,17.0,No
2022/03/05,23:10,0.161,0.146,0.233,0.225,0.227,0.127,0.080,west,17.5,No
2022/03/05,23:20,0.161,0.146,0.233,0.225,0.226,0.128,0.081,west-northwest,19.2,No
2022/03/05,23:30,0.161,0.147,0.233,0.225,0.227,0.128,0.081,west-northwest,15.9,No
2022/03/05,23:40,0.161,0.147,0.233,0.225,0.226,0.127,0.080,west-northwest,14.0,No
2022/03/05,23:50,0.161,0.147,0.233,0.225,0.226,0.127,0.081,-,CALM,No
